Free Severe Weather Alerts by Email and Text Message   

 
Follow iAlert.com on twitter @ialertcom
Search For Active Alerts in Your Area  
  Hi Guest:  [ Sign-up / Services ] [ Login ]

Current weather by "City, St" or "zip code"  

 

Advertise Here

Hazardous Weather Conditions

Excessive Heat Warning issued October 21 at 2:44PM PDT until October 24 at 8:00PM PDT
Excessive Heat Watch issued October 19 at 2:29PM PDT until October 24 at 8:00PM PDT
Wind Advisory issued October 22 at 4:04PM PDT until October 25 at 2:00PM PDT

Current Conditions: LOS ANGELES, CALIFORNIA

Fair


92.0 F

Last Updated on Oct 23 2017, 10:51 am PDT
Humidity: 13%
Wind Speed: 3.5 mph
Barometer 30.08 in
Dewpoint: 34.0 F
Visibility: 10.00 mi
Precip: --
Heat Index: 88 F
Wind Chill: NA
Current conditions at:

Santa Monica, Santa Monica Municipal Airport, CA (KSMO)

Lat: 34.01 Lon: -118.45

Local Radar Image active severe weather and emergency alerts image image weather storm and storm spotter reports image weather observation monitoring service image
Local
Radar
Active
Alerts
Storm Reports Weather
Monitoring

Weather Alert Notification Services


ialert severe weather and emergency alerts by text message and email ialert daily weather forecast by email and text message service ialert real-time weather-observation monitoring and alert notification service ialert storm report monitoring alert notification

Observation History for LOS ANGELES, CALIFORNIA


Time Wind
(mph)
Vis
(mi)
Weather Precip (in) Temperature (F) Relative
Humidity
Wind
Chill
(°F)
Heat
Index
(°F)
Pressure
Air Dwpt altimeter
(in)
sea level
(mb)
10:51 am PDT 3.5 10.00 Fair -- 92.0 34.0 13% NA 88 30.08 1018.4
9:51 am PDT E 3.5 10.00 Fair -- 87.0 43.0 21% NA 84 30.08 1018.5
8:51 am PDT N 0.0 10.00 Fair -- 80.0 39.9 24% NA 79 30.08 1018.4
7:51 am PDT N 3.5 10.00 Fair -- 69.0 42.1 38% NA NA 30.07 1018.0
6:51 am PDT E 5.8 10.00 Fair -- 65.0 41.0 42% NA NA 30.05 1017.4
5:51 am PDT NE 5.8 10.00 Fair -- 66.0 43.0 43% NA NA 30.04 1017.0
4:51 am PDT N 5.8 10.00 Fair -- 66.0 41.0 40% NA NA 30.04 1016.9
3:51 am PDT NE 4.6 10.00 Fair -- 67.0 43.0 42% NA NA 30.04 1017.1
2:51 am PDT NE 4.6 10.00 Fair -- 67.0 46.0 47% NA NA 30.05 1017.4
1:51 am PDT NE 3.5 10.00 Fair -- 66.0 51.1 59% NA NA 30.06 1017.6
12:51 am PDT NE 3.5 10.00 Fair -- 68.0 51.1 55% NA NA 30.06 1017.6
11:51 pm PDT E 3.5 10.00 Fair -- 69.0 50.0 51% NA NA 30.06 1017.6
10:51 pm PDT E 3.5 10.00 Fair -- 67.0 60.1 79% NA NA 30.07 1017.9
9:51 pm PDT N 0.0 10.00 Fair -- 68.0 60.1 76% NA NA 30.06 1017.9
8:51 pm PDT E 3.5 10.00 Fair -- 66.0 60.1 81% NA NA 30.06 1017.8
7:51 pm PDT N 0.0 10.00 Fair -- 68.0 61.0 78% NA NA 30.06 1017.8
6:51 pm PDT SW 5.8 10.00 Fair -- 70.0 61.0 73% NA NA 30.05 1017.4
5:51 pm PDT S 6.9 10.00 Fair -- 75.0 59.0 58% NA NA 30.05 1017.3
4:51 pm PDT W 4.6 10.00 Fair -- 83.0 30.0 15% NA 80 30.05 1017.4
3:51 pm PDT SW 8.1 10.00 Fair -- 83.0 27.0 13% NA 80 30.06 1017.8
2:51 pm PDT SW 6.9 10.00 Fair -- 84.0 28.9 13% NA 81 30.06 1017.9
1:51 pm PDT SW 5.8 10.00 Fair -- 85.0 30.9 14% NA 82 30.08 1018.3
12:51 pm PDT SW 5.8 10.00 Fair -- 84.0 33.1 16% NA 81 30.10 1019.1
11:51 am PDT SW 5.8 10.00 Fair -- 81.0 41.0 24% NA 79 30.12 1019.7

Regional Weather Observation:


Los Angeles / USC Campus Downtown, CA (KCQT)

Fair
93.0 F

Burbank - Bob Hope Airport, CA (KBUR)

Fair
88.0 F

Los Angeles, Whiteman Airport, CA (KWHP)

Clear
95.0 F

El Monte, CA (KEMT)

Fair
88.0 F

Los Angeles, Los Angeles International Airport, CA (KLAX)

Fair
92.0 F

Hawthorne, Hawthorne Municipal Airport, CA (KHHR)

Fair
91.0 F

Advertise Here


Advertise Here